Weather History for KIKK - November, 2013

Change the Weather History Date:

Friday, November 8, 2013

  Actual Average Record
Temperature  
Mean Temperature 38 °F -  
Max Temperature 49 °F 50 °F 69 °F (2010)
Min Temperature 26 °F 33 °F 6 °F (1991)
Degree Days  
Heating Degree Days 28    
Moisture  
Dew Point 30 °F    
Average Humidity 72    
Maximum Humidity 94    
Minimum Humidity 49    
Precipitation  
Precipitation 0.00 in - - ()
Sea Level Pressure  
Sea Level Pressure 30.23 in    
Wind  
Wind Speed 7 mph (SSW)    
Max Wind Speed 22 mph    
Max Gust Speed 32 mph    
Visibility 10 miles    
Events      
Averages and records for this station are not official NWS values.
T = Trace of Precipitation, MM = Missing Value Source: NWS Daily Summary

Daily Weather History Graph

Daily Weather History Graph

Search for Another Location

Airport or City:

Trip Planner

Search our weather history database for the weather conditions in past years. The results will help you decide how hot, cold, wet, or windy it might be!

Date:

Astronomy

Nov. 08, 2013 Rise Set
Actual Time 6:30 AM CST 4:38 PM CST
Civil Twilight 6:01 AM CST 5:07 PM CST
Nautical Twilight 5:29 AM CST 5:40 PM CST
Astronomical Twilight 4:56 AM CST 6:13 PM CST
Moon 11:26 AM CST (11/8) 9:59 PM CST (11/8)
Length of Visible Light 11h 05m
Length of Day
10h 07m
Waxing Crescent, 33% of the Moon is Illuminated
Nov 8
Waxing Crescent
Nov 9
First Quarter
Nov 17
Full
Nov 25
Last Quarter
Dec 2
New

Hourly Weather History & Observations

Time (CST) Temp. Windchill Dew Point Humidity Pressure Visibility Wind Dir Wind Speed Gust Speed Precip Events Conditions
12:15 AM 30.7 °F 24.9 °F 28.4 °F 91% 30.27 in 10.0 mi West 5.8 mph - N/A   Clear
12:35 AM 30.7 °F 24.9 °F 28.4 °F 91% 30.27 in 10.0 mi West 5.8 mph - N/A   Clear
12:55 AM 31.1 °F 24.5 °F 28.8 °F 91% 30.27 in 10.0 mi West 6.9 mph - N/A   Clear
1:15 AM 30.2 °F 22.6 °F 28.2 °F 92% 30.28 in 10.0 mi West 8.1 mph - N/A   Clear
1:35 AM 31.6 °F 24.4 °F 28.8 °F 89% 30.28 in 10.0 mi West 8.1 mph - N/A   Clear
1:55 AM 31.5 °F 24.9 °F 28.4 °F 88% 30.28 in 10.0 mi West 6.9 mph - N/A   Clear
2:15 AM 30.2 °F 23.4 °F 27.9 °F 91% 30.28 in 10.0 mi West 6.9 mph - N/A   Clear
2:35 AM 29.7 °F 24.7 °F 27.5 °F 92% 30.28 in 10.0 mi West 4.6 mph - N/A   Clear
2:55 AM 29.3 °F 25.6 °F 27.1 °F 92% 30.29 in 10.0 mi West 3.5 mph - N/A   Clear
3:15 AM 29.1 °F 25.4 °F 27.1 °F 92% 30.28 in 10.0 mi West 3.5 mph - N/A   Clear
3:35 AM 28.4 °F 24.6 °F 26.6 °F 93% 30.29 in 10.0 mi West 3.5 mph - N/A   Clear
3:55 AM 28.4 °F 23.3 °F 26.4 °F 92% 30.29 in 10.0 mi West 4.6 mph - N/A   Clear
4:15 AM 27.7 °F 23.8 °F 26.2 °F 94% 30.29 in 10.0 mi WSW 3.5 mph - N/A   Clear
4:35 AM 27.5 °F 22.2 °F 26.1 °F 94% 30.31 in 10.0 mi WSW 4.6 mph - N/A   Clear
4:55 AM 27.5 °F 22.2 °F 25.7 °F 93% 30.31 in 10.0 mi WSW 4.6 mph - N/A   Clear
5:15 AM 27.7 °F 22.4 °F 25.7 °F 92% 30.32 in 10.0 mi West 4.6 mph - N/A   Clear
5:35 AM 27.3 °F 20.9 °F 25.5 °F 93% 30.32 in 10.0 mi West 5.8 mph - N/A   Clear
5:55 AM 27.3 °F 23.4 °F 25.3 °F 92% 30.32 in 10.0 mi West 3.5 mph - N/A   Clear
6:15 AM 26.1 °F 21.9 °F 24.3 °F 93% 30.33 in 10.0 mi WSW 3.5 mph - N/A   Clear
6:35 AM 26.8 °F - 25.2 °F 94% 30.33 in 10.0 mi Calm Calm - N/A   Clear
6:55 AM 27.0 °F 23.0 °F 24.6 °F 91% 30.34 in 10.0 mi West 3.5 mph - N/A   Clear
7:15 AM 28.0 °F - 25.7 °F 91% 30.34 in 10.0 mi Calm Calm - N/A   Clear
7:35 AM 29.5 °F 25.9 °F 27.1 °F 91% 30.35 in 10.0 mi WSW 3.5 mph - N/A   Clear
7:55 AM 31.1 °F - 28.2 °F 89% 30.36 in 10.0 mi Calm Calm - N/A   Clear
8:15 AM 32.0 °F 28.7 °F 28.9 °F 88% 30.36 in 10.0 mi West 3.5 mph - N/A   Clear
8:35 AM 33.6 °F - 30.2 °F 87% 30.36 in 10.0 mi Calm Calm - N/A   Clear
8:55 AM 35.8 °F 33.0 °F 31.6 °F 85% 30.36 in 10.0 mi WSW 3.5 mph - N/A   Clear
9:15 AM 36.5 °F - 31.1 °F 81% 30.35 in 10.0 mi Calm Calm - N/A   Clear
9:35 AM 38.7 °F 36.3 °F 32.2 °F 78% 30.35 in 10.0 mi SW 3.5 mph - N/A   Clear
9:55 AM 39.9 °F 37.8 °F 32.2 °F 74% 30.34 in 10.0 mi SW 3.5 mph - N/A   Clear
10:15 AM 41.2 °F 38.2 °F 32.4 °F 71% 30.34 in 10.0 mi South 4.6 mph - N/A   Clear
10:35 AM 42.3 °F 39.4 °F 32.9 °F 69% 30.34 in 10.0 mi SSW 4.6 mph - N/A   Clear
10:55 AM 43.0 °F 40.3 °F 32.0 °F 65% 30.32 in 10.0 mi South 4.6 mph - N/A   Clear
11:15 AM 44.4 °F 41.2 °F 32.7 °F 64% 30.32 in 10.0 mi SSW 5.8 mph - N/A   Clear
11:35 AM 45.5 °F 41.8 °F 32.7 °F 61% 30.30 in 10.0 mi South 6.9 mph - N/A   Clear
11:55 AM 45.1 °F 42.0 °F 32.0 °F 60% 30.29 in 10.0 mi SSW 5.8 mph - N/A   Clear
12:15 PM 47.1 °F - 33.1 °F 58% 30.28 in 10.0 mi SW 5.8 mph - N/A   Clear
12:35 PM 48.0 °F - 33.1 °F 56% 30.27 in 10.0 mi SSW 8.1 mph - N/A   Clear
12:55 PM 47.8 °F - 32.0 °F 54% 30.26 in 10.0 mi SSW 8.1 mph - N/A   Clear
1:15 PM 49.1 °F - 32.0 °F 52% 30.25 in 10.0 mi South 8.1 mph - N/A   Clear
1:35 PM 49.5 °F - 32.2 °F 51% 30.24 in 10.0 mi South 9.2 mph - N/A   Clear
1:55 PM 48.6 °F - 30.7 °F 50% 30.23 in 10.0 mi South 10.4 mph - N/A   Clear
2:15 PM 47.5 °F - 31.5 °F 54% 30.22 in 10.0 mi South 8.1 mph - N/A   Clear
2:35 PM 48.2 °F - 31.5 °F 52% 30.22 in 10.0 mi South 6.9 mph - N/A   Clear
2:55 PM 48.2 °F - 30.0 °F 49% 30.21 in 10.0 mi South 10.4 mph - N/A   Clear
3:15 PM 48.0 °F - 30.6 °F 51% 30.21 in 10.0 mi South 12.7 mph - N/A   Clear
3:35 PM 47.5 °F - 31.6 °F 54% 30.20 in 10.0 mi South 9.2 mph - N/A   Clear
3:55 PM 47.1 °F - 31.6 °F 55% 30.19 in 10.0 mi SSE 6.9 mph - N/A   Clear
4:15 PM 47.1 °F - 32.0 °F 56% 30.18 in 10.0 mi SSE 8.1 mph - N/A   Scattered Clouds
4:35 PM 46.6 °F - 32.0 °F 57% 30.17 in 10.0 mi South 9.2 mph - N/A   Scattered Clouds
4:55 PM 45.7 °F 41.5 °F 32.0 °F 59% 30.16 in 10.0 mi SSE 8.1 mph - N/A   Clear
5:15 PM 45.1 °F 40.8 °F 32.0 °F 60% 30.15 in 10.0 mi SSE 8.1 mph - N/A   Clear
5:35 PM 45.0 °F 40.1 °F 32.0 °F 60% 30.15 in 10.0 mi SSE 9.2 mph - N/A   Clear
5:55 PM 44.6 °F 40.2 °F 32.0 °F 61% 30.15 in 10.0 mi SSE 8.1 mph - N/A   Clear
6:15 PM 44.2 °F 39.2 °F 31.8 °F 62% 30.14 in 10.0 mi SSE 9.2 mph - N/A   Clear
6:35 PM 44.2 °F 38.8 °F 31.8 °F 62% 30.14 in 10.0 mi SSE 10.4 mph 16.1 mph N/A   Clear
6:55 PM 44.1 °F 37.7 °F 31.6 °F 62% 30.12 in 10.0 mi SSE 12.7 mph 18.4 mph N/A   Clear
7:15 PM 44.1 °F 38.1 °F 31.5 °F 61% 30.11 in 10.0 mi SSE 11.5 mph 20.7 mph N/A   Clear
7:35 PM 43.7 °F 37.7 °F 31.6 °F 63% 30.10 in 10.0 mi SSE 11.5 mph 18.4 mph N/A   Clear
7:55 PM 44.6 °F 37.8 °F 30.9 °F 59% 30.10 in 10.0 mi SSE 15.0 mph 20.7 mph N/A   Clear
8:15 PM 45.0 °F 37.9 °F 30.9 °F 58% 30.09 in 10.0 mi SSE 16.1 mph 24.2 mph N/A   Clear
8:35 PM 45.0 °F 38.5 °F 30.9 °F 58% 30.08 in 10.0 mi SSE 13.8 mph 24.2 mph N/A   Scattered Clouds
8:55 PM 45.0 °F 38.2 °F 31.1 °F 58% 30.09 in 10.0 mi South 15.0 mph 21.9 mph N/A   Mostly Cloudy
9:15 PM 44.6 °F 38.4 °F 31.6 °F 60% 30.08 in 10.0 mi South 12.7 mph 23.0 mph N/A   Scattered Clouds
9:35 PM 44.6 °F 38.4 °F 32.0 °F 61% 30.08 in 10.0 mi South 12.7 mph 21.9 mph N/A   Mostly Cloudy
9:55 PM 45.1 °F 37.9 °F 31.8 °F 60% 30.08 in 10.0 mi South 17.3 mph 23.0 mph N/A   Overcast
10:15 PM 45.5 °F 38.3 °F 31.6 °F 58% 30.07 in 10.0 mi South 17.3 mph 23.0 mph N/A   Overcast
10:35 PM 44.2 °F 37.3 °F 31.8 °F 62% 30.06 in 10.0 mi South 15.0 mph 21.9 mph N/A   Mostly Cloudy
10:55 PM 44.2 °F 37.3 °F 32.0 °F 62% 30.05 in 10.0 mi South 15.0 mph 20.7 mph N/A   Mostly Cloudy
11:15 PM 44.6 °F 36.1 °F 31.8 °F 61% 30.03 in 10.0 mi South 21.9 mph 27.6 mph N/A   Overcast
11:35 PM 44.6 °F 36.1 °F 31.8 °F 61% 30.03 in 10.0 mi South 21.9 mph 32.2 mph N/A   Overcast
11:55 PM 44.2 °F 36.2 °F 32.0 °F 62% 30.02 in 10.0 mi South 19.6 mph 27.6 mph N/A   Overcast